Location: ??? ????
(30.0606°N, 31.1972°E)
Time: 13:22:03
(UTC+00:00)

Daily predictions for brighter satellites

Satellite Brightness Start Highest point End
(mag) Time Altitude Azimuth Time Altitude Azimuth Time Altitude Azimuth
COSMOS 2406 3.3 17:12:15 10° NNW 17:17:59 68° ENE 17:23:40 10° SSE
Cosmos 2369 Rocket 4.0 17:21:04 10° ESE 17:22:30 11° E 17:23:57 10° E
Okean 3 3.9 17:18:29 10° SSE 17:22:34 44° E 17:26:39 10° NNE
Aureole 1 Rocket 4.0 17:17:07 10° NNW 17:22:39 85° ENE 17:29:52 10° SSE
Meteor 1-19 Rocket 4.5 17:17:39 10° S 17:23:17 79° W 17:29:08 10° N
GENESIS II 4.3 17:19:37 10° NNW 17:23:35 79° WSW 17:27:26 10° SSE
Cosmos 2082 Rocket 3.4 17:19:09 10° N 17:23:53 26° ENE 17:28:35 10° ESE
Cosmos 1743 3.1 17:20:46 10° NNW 17:24:33 66° W 17:28:17 10° S
ASTRO E2 2.9 17:21:12 10° W 17:25:09 72° N 17:29:06 10° E
Cosmos 407 Rocket 4.0 17:20:48 10° NNW 17:26:07 66° WSW 17:31:23 10° S
STARLINK-1088 4.4 17:23:58 10° NW 17:27:57 48° SW 17:31:55 10° SSE
Cosmos 1140 Rocket 3.6 17:24:10 10° NNW 17:29:24 85° WSW 17:34:38 10° SSE
Cosmos 909 Rocket 4.2 17:24:13 10° NNW 17:31:19 85° WSW 17:37:33 10° SSE
Cosmos 1452 Rocket 3.8 17:27:44 10° SSW 17:32:59 77° WNW 17:38:17 10° NNE
Hubble Space Telescope 3.2 17:34:04 10° SW 17:35:04 11° SSW 17:36:03 10° SSW
STARLINK-60 4.0 17:32:49 10° WSW 17:35:52 48° NW 17:38:56 10° NNE
BREEZE-M DEB (TANK) 3.2 17:34:15 10° NNW 17:36:24 37° NE 17:38:37 13° ESE
Iridium 51 4.1 17:32:54 10° S 17:36:43 62° E 17:40:16 10° N
Cosmos 1634 Rocket 4.2 17:32:12 10° N 17:38:22 54° E 17:44:31 10° SSE
Meteor 1-4 Rocket 4.3 17:37:11 10° SSW 17:40:19 33° W 17:43:31 10° NNW
Cosmos 332 Rocket 4.0 17:35:34 10° SSW 17:40:27 81° WNW 17:45:22 10° NNE
Meteor 2-9 Rocket 4.0 17:36:56 10° N 17:42:15 79° E 17:47:34 10° S
STARLINK-1100 4.5 17:41:20 10° NNW 17:45:12 38° NE 17:48:18 15° ESE
STARLINK-1083 4.3 17:46:15 10° NNW 17:50:11 42° NE 17:53:04 17° ESE
Orbus 7S 3.2 17:48:32 10° WSW 17:51:07 53° S 17:55:18 12° E
Lacrosse 5 1.9 17:49:04 10° NNW 17:54:07 69° NE 17:57:52 18° SE
MetOp-A 4.4 17:49:21 12° SSE 17:54:13 53° ENE 17:59:25 10° N
STARLINK-1125 4.1 17:51:10 10° NNW 17:55:10 47° NE 17:57:51 19° ESE
Cosmos 1975 3.5 17:52:02 10° NNW 17:55:57 55° W 17:59:50 10° S
STARLINK-1109 4.0 17:56:06 10° NNW 18:00:09 53° NE 18:02:37 22° ESE
SL-08 RB Rocket 3.8 17:57:11 10° S 18:01:46 80° WSW 18:06:19 10° NNW
FREGAT/IRIS 3.7 18:00:28 10° SSW 18:02:56 35° W 18:05:26 10° NNW
SL-4 R/B 2.4 18:01:54 10° NW 18:04:27 32° WSW 18:06:06 16° SSW
STARLINK-1091 3.8 18:01:02 10° NW 18:05:07 60° NE 18:07:24 24° ESE
SJ-6B 3.0 18:02:12 10° S 18:05:50 66° W 18:09:32 10° NNW
STARLINK-29 3.7 18:04:36 10° SW 18:07:45 54° NW 18:10:56 10° NNE
STARLINK-1072 3.7 18:06:01 10° NW 18:10:09 68° NE 18:12:13 28° ESE
Meteor 1-13 Rocket 4.4 18:04:52 10° S 18:10:28 77° W 18:16:12 10° N
Ariane Rocket 4.0 18:05:55 10° S 18:10:45 45° W 18:15:37 10° NNW
ISS -3.8 18:08:41 10° NW 18:12:03 81° SW 18:13:22 34° SE
Cosmos 1110 Rocket 4.0 18:09:52 10° SSW 18:15:03 83° WNW 18:20:15 10° NNE
STARLINK-1096 3.6 18:10:57 10° NW 18:15:05 77° NE 18:16:58 31° SE
USA 186 4.1 18:15:18 10° SW 18:17:07 17° W 18:19:02 10° NW
Cosmos 1741 Rocket 4.1 18:12:27 10° N 18:17:35 57° ENE 18:20:20 27° SE
Intelsat 5-1 Rocket 3.4 18:17:48 10° SSW 18:17:51 10° SSW 18:17:51 10° SSW
STARLINK-1079 3.5 18:15:57 10° NW 18:20:06 86° NE 18:21:47 35° SE
Cosmos 1850 Rocket 4.0 18:19:20 10° NNW 18:24:40 73° ENE 18:27:29 28° SSE
STARLINK-1116 3.5 18:20:55 10° NW 18:25:04 84° SW 18:26:34 38° SE
Cosmos 1331 Rocket 4.2 18:22:51 10° SSW 18:27:58 69° WNW 18:33:07 10° N
CZ-2C R/B 3.9 18:27:07 10° N 18:32:25 45° WNW 18:37:40 10° SW
Cosmos 1943 Rocket 2.1 18:29:04 10° SSW 18:34:34 89° ESE 18:40:11 10° NNE
STARLINK-1094 3.7 18:30:53 10° NW 18:34:59 65° SW 18:36:07 43° SSE
Okean 1 Rocket 3.6 18:30:55 10° NNE 18:35:04 39° E 18:35:34 37° E
SAR-Lupe-2 4.3 18:31:53 10° NNE 18:34:41 36° ENE 18:34:41 36° ENE
Nadezhda 4 Rocket 3.9 18:32:02 20° S 18:36:26 70° E 18:42:30 10° N
SPOT 3 Rocket 3.8 18:33:22 20° S 18:36:52 66° WSW 18:42:00 10° NNW
NOSS 3-4 (A) 3.5 18:34:22 16° S 18:38:45 48° ESE 18:44:30 10° NE
NOSS 3-4 (C) 3.5 18:34:46 18° S 18:38:52 47° ESE 18:44:35 10° NE
ATLAS 3B CENTAUR R/B 4.0 18:19:08 10° W 18:39:13 82° S 18:45:54 21° E
STARLINK-1117 3.9 18:35:54 10° NW 18:39:57 57° SW 18:40:55 44° S
Cosmos 1302 Rocket 3.9 18:37:18 18° S 18:41:17 76° ESE 18:46:34 10° NNE
STARLINK-1078 4.1 18:40:54 10° NW 18:44:54 50° SW 18:45:41 43° SSW
APEX 4.4 18:38:15 10° S 18:45:02 64° ESE 18:50:49 10° NNE
Okean 2 Rocket 4.4 18:42:00 10° NNW 18:46:01 36° W 18:49:07 15° SSW
IGS 5A 4.4 18:46:22 32° ENE 18:46:22 32° ENE 18:49:55 10° N
Resurs 01 Rocket 1.7 18:46:54 40° S 18:48:27 74° W 18:52:54 10° NNW
GPS 2-04 Rocket1 2.3 18:45:42 10° WNW 18:49:02 78° NNW 18:49:02 78° NNW
STARLINK-1108 4.2 18:45:57 10° NW 18:49:53 44° SW 18:50:29 41° SSW
ATLAS CENTAUR R/B 2.1 18:52:18 40° ENE 18:52:18 40° ENE 18:55:25 10° NE
Okean 2 3.9 18:53:54 45° ENE 18:53:54 45° ENE 18:57:18 10° NNE
STARLINK-1071 4.4 18:50:59 10° WNW 18:54:50 39° SW 18:55:16 37° SW
Cosmos 1656 Rocket 4.1 18:56:26 42° E 18:56:26 42° E 19:01:28 10° NE
SWIFT 4.5 18:55:40 10° SW 18:56:57 16° SW 18:56:57 16° SW
Sakura Rocket 4.2 18:55:45 10° W 19:01:43 64° SSW 19:04:13 43° SE
ASTRO E2 3.2 19:01:41 10° W 19:04:48 50° WSW 19:04:48 50° WSW
Cosmos 2369 Rocket 2.4 19:00:12 10° SSW 19:05:49 69° WNW 19:11:28 10° NNE
ATLAS 2AS CENTAUR R/B 2.9 18:58:19 10° SSW 19:06:07 86° ESE 19:14:11 10° NNE
Milstar 3 Cent rocket 3.6 18:59:47 10° WSW 19:07:07 68° SSE 19:23:15 10° E
STARLINK-1128 4.5 19:03:13 10° NNW 19:06:59 40° NE 19:06:59 40° NE
ATLAS 5 CENTAUR R/B 3.1 18:53:03 10° SSW 19:07:13 63° SE 19:11:10 10° NE
Cosmos 2082 Rocket 3.6 19:02:54 10° NW 19:07:53 32° WSW 19:10:46 20° SSW
MetOp-B 4.1 19:07:58 54° S 19:09:14 83° WSW 19:14:37 10° NNW
ASC 2 Rocket 4.4 19:05:05 10° WSW 19:09:05 40° S 19:09:05 40° S
STARLINK-1113 4.4 19:08:10 10° NNW 19:11:48 44° NNE 19:11:48 44° NNE
NOSS 3-2 (A) 4.4 19:08:51 10° NNW 19:16:37 56° ENE 19:19:19 41° ESE
STARLINK-1119 4.4 19:13:05 10° NNW 19:16:34 47° NNE 19:16:34 47° NNE
ERS-1 Rocket 3.5 19:19:15 45° ENE 19:19:15 45° ENE 19:23:42 10° N
Cosmos 292 Rocket 3.9 19:18:52 59° SW 19:19:38 71° WNW 19:24:29 10° N
Cosmos 1766 4.1 19:17:20 10° N 19:20:13 45° N 19:20:13 45° N
STARLINK-1114 4.4 19:18:03 10° NW 19:21:21 48° N 19:21:21 48° N
Cosmos 1092 Rocket 4.0 19:24:07 43° SSW 19:26:13 72° W 19:32:21 10° N
STARLINK-1130 (DARKSAT) 4.5 19:22:59 10° NW 19:26:08 47° NNW 19:26:08 47° NNW
SL-8 R/B 4.2 19:22:49 10° NW 19:27:19 51° NNE 19:27:19 51° NNE
USA 238 DEB 3.9 19:23:31 10° NNW 19:30:49 65° ENE 19:32:17 54° ESE
USA 238 3.9 19:23:37 10° NNW 19:30:55 65° ENE 19:32:24 54° ESE
Landsat 7 4.0 19:32:42 66° W 19:32:42 66° W 19:37:14 10° NNW
Lacrosse 5 4.2 19:34:31 10° W 19:36:31 12° WSW 19:37:05 12° WSW
Cosmos 1975 Rocket 3.8 19:37:09 49° WNW 19:37:09 49° WNW 19:41:08 10° N
COSMOS 2455 2.7 19:38:19 84° ESE 19:38:20 84° ESE 19:44:22 10° NNE
Cosmos 1428 Rocket 4.4 19:38:04 69° SSW 19:38:54 87° W 19:45:12 10° N
SPOT 5 3.7 20:09:28 52° NW 20:09:28 52° NW 20:13:47 10° NNW
CENTAUR R/B 3.2 20:01:10 10° NNW 20:09:36 69° ENE 20:10:45 63° E
ATLAS 3B R/B 3.8 20:10:18 10° N 20:16:22 32° NE 20:16:50 32° ENE
Terra 3.2 20:19:29 37° NNW 20:19:29 37° NNW 20:22:25 10° NNW
Cosmos 1553 Rocket 4.2 20:17:45 10° N 20:22:57 64° NNW 20:22:57 64° NNW
NOSS 3-2 (C) 4.0 20:21:01 10° NNW 20:29:05 82° WSW 20:29:21 81° SW
ATLAS CENTAUR R/B 4.4 20:28:18 10° W 20:30:17 13° NW 20:32:20 10° NNW
SeaSat 1 4.4 20:29:40 10° NNE 20:31:17 21° NNE 20:31:17 21° NNE
ATLAS 3B CENTAUR R/B 3.9 20:51:54 10° W 21:00:02 39° WSW 21:00:02 39° WSW
CZ-4C R/B 4.4 21:14:28 16° NE 21:14:28 16° NE 21:15:35 10° NE
ATLAS 3B R/B 4.1 22:00:38 10° NW 22:04:04 28° WNW 22:04:04 28° WNW
Cosmos 2297 Rocket 3.7 22:03:10 10° N 22:06:15 32° N 22:06:15 32° N
SJ 16-02 4.2 22:07:06 10° N 22:08:01 15° N 22:08:01 15° N
Cosmos 1697 Rocket 4.1 22:28:57 33° N 22:28:57 33° N 22:32:11 10° N
Cosmos 2227 Rocket 3.8 22:40:39 10° NNW 22:43:18 29° NNW 22:43:18 29° NNW
Resurs 1-4 Rocket 3.9 22:44:49 10° NE 22:47:38 25° ENE 22:47:38 25° ENE
SL-16 R/B 3.9 22:54:48 25° ENE 22:54:48 25° ENE 22:57:53 10° NE
CZ-4C R/B 4.3 22:59:37 15° NW 22:59:37 15° NW 23:02:33 10° N
FALCON 9 R/B 3.1 22:58:56 64° NW 23:00:00 75° NNE 23:18:24 10° ESE
CZ-2D R/B 3.2 23:11:45 10° NNE 23:15:12 40° NE 23:15:12 40° NE
Cosmos 2360 Rocket 4.2 23:17:21 18° E 23:17:21 18° E 23:20:37 10° ENE
Cosmos 1980 Rocket 3.6 23:25:34 29° NW 23:25:34 29° NW 23:29:16 10° N
USA 215 3.2 23:26:26 80° NE 23:26:27 80° NE 23:33:01 10° NW
Cosmos 2181 Rocket 4.3 23:25:20 10° N 23:30:38 59° NW 23:30:38 59° NW
Cosmos 2154 Rocket 4.2 23:37:56 61° E 23:37:56 61° E 23:44:03 10° NNE
SL-16 R/B 2.6 23:39:09 70° E 23:39:15 70° ENE 23:45:23 10° N
Meteor 2-17 Rocket 4.5 23:42:20 76° NE 23:42:20 76° NE 23:48:04 10° N
Cosmos 2263 Rocket 3.1 23:45:05 10° N 23:50:23 43° ENE 23:51:56 35° ESE
